Temp
43 36 31 35 37 38 36 32 30 35 43 39 38 39 43 46 45 43 43 43 45 46 49 50 51 51 51 51 51 52 52 54 53 52 52 54 54 56 58 59 61 62 64 67
36 31 40 43 41 39 36 32 30 36 41 38 37 37 43 45 46 48 47 42 44 45 47 49 50 50 50 50 50 51 52 53 53 53 54 54 56 57 59 60 60 62 64 66
32 38 45 43 39 36 33 30 30 31 36 36 33 30 35 41 44 44 44 43 44 45 45 47 49 50 50 49 49 52 53 54 54 54 54 54 55 59 57 57 57 60 63 65
35 43 41 38 37 37 30 38 37 35 33 22 33 20 29 35 38 39 40 41 43 44 46 48 49 49 52 51 52 53 54 54 57 57 56 54 53 54 57 58 57 58 62 64
35 36 36 36 38 39 34 39 36 35 34 30 26 20 28 36 35 37 39 41 43 45 47 47 48 50 51 52 50 51 53 56 56 56 56 55 55 57 59 59 56 57 60 63
36 42 40 39 42 41 43 37 33 30 29 23 27 24 26 29 35 36 40 43 45 47 47 48 49 50 50 50 50 53 51 54 56 55 56 54 53 56 58 57 56 57 58 61
32 35 40 42 36 39 37 29 17 16 13 17 28 25 28 37 40 42 42 43 44 45 45 46 46 46 48 48 49 50 52 53 55 56 56 56 54 53 55 57 57 57 56 57
22 24 36 41 37 33 33 30 16 9 14 17 29 24 31 39 41 44 46 45 45 46 46 46 46 46 47 47 48 48 50 51 54 55 55 56 58 56 55 57 57 58 59 58
23 27 38 41 40 39 32 25 35 23 19 22 24 29 37 39 37 39 43 44 44 44 45 45 46 46 46 47 47 47 48 50 53 54 54 56 57 58 56 56 56 57 58 59
30 23 33 38 39 37 35 36 23 22 14 15 20 22 24 34 38 40 40 41 43 44 45 45 45 46 46 47 46 47 47 48 51 54 54 55 55 56 58 57 56 57 58 58
32 28 29 33 32 31 31 28 29 24 25 14 14 22 33 37 38 39 40 42 43 43 43 44 45 46 46 45 45 45 46 47 48 52 53 53 53 54 55 57 57 58 57 58
34 28 20 29 34 35 33 31 30 21 17 20 19 21 38 38 39 40 41 43 43 43 44 44 44 44 43 43 43 44 45 45 47 49 52 52 52 53 53 55 57 57 56 56
35 24 15 27 29 32 31 32 32 25 22 20 16 22 39 36 38 40 39 41 42 42 43 43 42 43 43 42 42 42 43 44 46 47 50 51 51 51 51 52 55 56 57 57
41 25 23 22 28 29 27 31 31 28 11 17 24 28 40 39 38 40 40 40 40 41 42 42 42 42 42 42 41 41 42 43 44 45 46 49 49 50 51 52 51 52 53 55
33 18 25 28 31 32 31 31 31 24 28 23 26 26 37 37 37 41 40 40 39 41 41 41 42 42 41 41 41 41 42 42 43 44 44 45 49 50 50 50 50 50 49 50
31 22 19 24 31 29 27 30 30 32 32 30 33 33 44 45 42 38 39 39 39 40 41 41 42 42 41 41 41 42 42 42 42 42 43 45 46 47 49 49 49 49 48 48
29 23 19 20 28 27 24 29 31 30 31 32 26 35 37 37 39 39 41 40 41 42 42 42 42 42 41 41 41 40 41 41 42 42 42 43 44 44 44 47 48 47 46 47
26 24 23 20 22 21 37 37 37 34 34 35 34 37 38 39 39 41 43 41 42 42 43 43 42 42 42 41 41 41 41 41 41 41 41 42 43 43 43 43 44 44 45 44
32 28 22 18 17 29 40 34 33 32 37 39 37 41 43 39 38 40 44 43 45 45 44 43 43 42 41 41 41 40 40 40 40 40 41 41 42 41 41 40 40 40 40 40
31 32 25 21 17 23 38 38 39 37 32 41 39 39 37 38 35 38 44 43 44 43 43 42 41 41 41 41 40 39 39 39 39 40 41 41 41 41 40 40 39 39 39 39
22 23 23 24 19 26 39 40 40 28 37 43 41 42 40 38 44 46 43 44 43 44 45 42 41 41 42 41 39 38 39 38 40 41 41 41 41 40 40 39 39 38 38 37
26 23 21 24 20 20 40 37 36 44 43 46 46 46 43 43 44 44 46 43 44 44 44 43 40 40 41 40 39 39 38 40 40 41 40 40 40 41 40 39 38 37 36 35
28 35 30 29 28 41 41 41 46 45 44 47 46 48 47 44 45 48 46 46 46 43 43 42 40 40 39 40 40 39 41 40 39 39 39 38 39 39 38 37 36 35 35 34
31 40 34 33 40 43 47 46 48 50 50 53 51 50 47 46 46 46 45 46 45 47 44 42 40 39 40 39 40 42 40 40 39 38 38 37 37 37 37 37 37 35 34 33
39 40 36 38 44 47 50 52 53 52 52 48 46 48 49 47 46 46 49 48 49 47 47 41 41 42 42 40 40 41 40 39 38 37 37 36 37 37 36 35 35 34 34 35
37 40 38 38 49 47 49 52 52 50 51 52 51 49 48 45 47 49 49 51 49 48 47 40 41 42 43 40 41 41 41 40 39 38 36 37 36 35 35 34 33 41 41 42
MSLP
1020.39 1020.85 1020.84 1020.86 1020.91 1020.90 1021.20 1021.18 1020.72 1019.62 1018.45 1018.10 1017.08 1016.46 1014.95 1014.90 1014.78 1014.61 1014.62 1014.60 1014.62 1014.67 1014.19 1014.11 1013.97 1013.83 1013.60 1013.35 1013.14 1012.93 1012.64 1012.29 1011.96 1011.75 1011.40 1010.83 1010.23 1009.89 1009.56 1009.34 1009.19 1009.14 1009.33 1009.34
1021.07 1020.91 1020.40 1020.48 1020.48 1020.64 1020.68 1020.75 1020.38 1019.35 1018.61 1018.27 1017.29 1015.96 1014.95 1014.44 1013.93 1013.53 1013.70 1014.19 1014.35 1014.43 1014.04 1013.75 1013.59 1013.46 1013.19 1012.83 1012.68 1012.40 1012.04 1011.63 1011.29 1011.24 1010.86 1010.52 1009.87 1009.19 1008.94 1008.72 1008.58 1008.41 1008.41 1008.49
1021.25 1020.48 1020.19 1020.19 1020.19 1020.32 1020.25 1020.27 1020.02 1019.80 1018.96 1018.28 1017.72 1015.90 1014.43 1013.36 1012.97 1012.85 1013.02 1013.26 1013.75 1013.91 1013.70 1013.35 1013.06 1012.76 1012.51 1012.54 1012.11 1011.80 1011.32 1010.84 1010.56 1010.49 1010.33 1009.92 1009.38 1008.67 1008.42 1008.27 1008.00 1007.92 1007.92 1007.78
1020.95 1020.05 1019.98 1019.97 1020.00 1020.00 1019.92 1019.38 1019.57 1019.60 1019.80 1019.48 1018.61 1017.78 1015.06 1013.68 1013.03 1012.83 1013.11 1013.38 1013.52 1013.62 1013.21 1012.87 1012.65 1012.55 1012.50 1012.02 1011.68 1011.31 1010.63 1010.25 1009.89 1009.62 1009.33 1009.07 1008.58 1007.85 1007.43 1007.22 1007.02 1006.97 1006.97 1006.97
1020.72 1020.23 1019.91 1019.76 1019.42 1019.62 1019.50 1019.27 1019.56 1019.68 1019.94 1020.13 1019.07 1018.77 1015.00 1013.90 1013.31 1013.06 1013.05 1013.03 1013.04 1012.97 1012.67 1012.56 1012.53 1012.07 1011.71 1011.54 1011.41 1011.00 1010.31 1009.79 1009.38 1009.02 1008.71 1008.25 1007.79 1007.17 1006.70 1006.55 1006.38 1006.28 1006.26 1006.14
1021.08 1020.47 1020.17 1019.57 1019.19 1019.30 1019.23 1019.42 1019.58 1019.98 1020.36 1020.33 1018.81 1018.56 1015.41 1014.05 1013.04 1012.83 1012.70 1012.61 1012.51 1012.32 1012.26 1012.20 1011.89 1011.73 1011.56 1011.52 1011.17 1010.67 1010.15 1009.32 1008.68 1008.21 1007.83 1007.63 1007.24 1006.60 1006.09 1005.93 1005.90 1005.77 1005.65 1005.51
1021.55 1020.55 1019.80 1019.51 1019.48 1019.34 1019.71 1020.18 1020.77 1020.96 1021.08 1019.95 1018.74 1018.25 1014.72 1013.16 1012.46 1012.14 1012.17 1012.10 1012.02 1011.94 1011.92 1011.87 1011.90 1011.94 1011.54 1011.08 1010.87 1010.43 1009.83 1009.24 1008.42 1007.73 1007.13 1006.64 1006.25 1005.92 1005.55 1005.15 1005.07 1005.11 1005.03 1005.05
1022.70 1020.66 1019.80 1019.36 1019.49 1019.78 1020.24 1021.04 1022.23 1022.63 1022.03 1020.50 1018.59 1017.12 1013.90 1012.46 1011.66 1011.36 1011.45 1011.61 1011.75 1011.79 1011.80 1011.80 1011.79 1011.59 1011.32 1011.19 1010.85 1010.25 1009.52 1008.78 1008.10 1007.44 1006.69 1005.95 1005.30 1004.95 1004.58 1004.23 1004.14 1004.25 1004.16 1004.14
1022.97 1021.49 1019.97 1019.38 1019.18 1019.74 1020.28 1021.11 1021.72 1022.42 1022.56 1021.86 1018.64 1016.12 1013.41 1012.15 1011.72 1011.41 1011.33 1011.54 1011.56 1011.47 1011.49 1011.53 1011.49 1011.34 1011.15 1011.06 1010.89 1010.28 1009.50 1008.71 1007.91 1007.16 1006.49 1005.73 1004.99 1004.17 1003.78 1003.60 1003.55 1003.50 1003.48 1003.49
1023.35 1022.81 1020.57 1019.93 1019.60 1019.69 1019.91 1020.90 1021.79 1022.93 1023.46 1022.03 1019.02 1017.11 1014.37 1012.53 1011.91 1011.69 1011.61 1011.42 1011.37 1011.23 1011.22 1011.29 1011.35 1011.19 1010.89 1010.75 1010.51 1009.97 1009.39 1008.77 1007.92 1007.11 1006.43 1005.64 1004.98 1004.18 1003.27 1002.83 1002.71 1002.73 1002.66 1002.78
1023.34 1023.91 1021.71 1020.99 1020.14 1019.81 1020.39 1020.84 1021.92 1023.06 1023.64 1023.66 1021.66 1016.05 1013.11 1012.19 1011.54 1011.43 1011.22 1011.02 1010.98 1010.97 1011.09 1011.05 1010.99 1010.74 1010.52 1010.32 1010.21 1009.86 1009.34 1008.79 1007.92 1007.21 1006.39 1005.49 1004.62 1003.91 1003.17 1002.44 1002.06 1001.89 1002.07 1002.14
1023.47 1023.96 1023.28 1021.05 1020.32 1020.34 1020.43 1020.62 1021.46 1022.72 1023.38 1023.34 1022.53 1017.01 1012.61 1012.07 1011.74 1011.32 1010.81 1010.73 1010.55 1010.62 1010.46 1010.33 1010.41 1010.46 1010.38 1010.13 1009.98 1009.72 1009.26 1008.95 1008.37 1007.52 1006.56 1005.58 1004.68 1003.81 1003.13 1002.33 1001.73 1001.51 1001.59 1001.65
1023.36 1024.15 1023.90 1021.41 1021.27 1020.64 1020.74 1020.81 1021.33 1022.09 1022.64 1022.39 1021.57 1015.72 1012.72 1012.25 1011.63 1011.21 1011.30 1010.87 1010.43 1010.32 1010.26 1010.09 1010.12 1010.11 1009.98 1009.85 1009.81 1009.63 1009.34 1008.89 1008.30 1007.70 1006.89 1006.10 1005.25 1004.48 1003.69 1002.86 1001.96 1001.41 1001.29 1001.25
1023.34 1024.26 1024.25 1023.13 1021.55 1021.00 1020.74 1020.63 1021.07 1021.58 1022.45 1020.72 1017.87 1014.51 1011.97 1012.08 1011.70 1011.29 1010.86 1010.57 1010.48 1010.17 1009.94 1009.82 1009.83 1009.63 1009.50 1009.51 1009.46 1009.35 1009.05 1008.77 1008.30 1007.80 1007.16 1006.47 1005.76 1004.96 1004.13 1003.40 1002.89 1002.26 1001.68 1000.98
1024.20 1024.70 1024.10 1022.75 1021.58 1020.54 1019.59 1019.57 1020.05 1020.24 1019.55 1019.09 1015.55 1014.59 1011.39 1011.25 1011.09 1010.72 1010.50 1010.11 1009.82 1009.58 1009.40 1009.10 1009.00 1009.17 1009.12 1009.08 1009.08 1008.95 1008.68 1008.49 1008.18 1007.75 1007.28 1006.77 1006.24 1005.47 1004.80 1003.82 1003.39 1003.16 1002.52 1001.88
1024.43 1024.47 1024.22 1022.20 1020.48 1019.73 1018.27 1017.39 1017.55 1017.92 1018.00 1017.32 1015.58 1013.66 1010.99 1009.92 1010.06 1009.86 1009.69 1009.62 1009.33 1008.67 1008.40 1008.45 1008.40 1008.59 1008.66 1008.66 1008.69 1008.62 1008.38 1008.15 1008.03 1007.73 1007.36 1006.95 1006.43 1005.96 1005.32 1004.65 1003.63 1003.77 1003.59 1003.06
1024.34 1024.70 1024.77 1022.28 1020.29 1018.72 1016.59 1013.85 1014.90 1014.96 1014.77 1014.83 1014.77 1011.26 1010.34 1009.78 1009.90 1009.50 1008.97 1008.87 1008.59 1007.95 1007.68 1007.50 1007.67 1007.92 1007.94 1008.08 1008.31 1008.42 1008.27 1008.10 1008.04 1007.79 1007.51 1007.13 1006.81 1006.39 1005.99 1005.47 1004.74 1004.31 1004.31 1003.92
1023.88 1024.59 1024.57 1022.93 1020.84 1017.59 1012.68 1012.12 1012.30 1012.84 1012.21 1012.25 1011.49 1010.17 1009.92 1009.47 1009.08 1008.71 1008.21 1007.87 1007.32 1007.13 1006.95 1006.81 1006.85 1007.06 1007.25 1007.54 1007.78 1007.98 1008.16 1008.16 1008.05 1007.84 1007.54 1007.30 1007.04 1006.76 1006.31 1005.95 1005.59 1005.27 1004.85 1004.82
1022.80 1023.62 1023.98 1023.12 1021.05 1016.16 1011.47 1011.28 1011.49 1011.71 1010.06 1009.28 1009.98 1009.42 1009.01 1009.41 1009.18 1007.57 1006.26 1006.52 1006.23 1006.15 1006.17 1006.06 1005.94 1006.04 1006.55 1007.12 1007.24 1007.63 1007.95 1008.07 1008.11 1007.98 1007.74 1007.45 1007.11 1006.92 1006.79 1006.55 1006.30 1006.17 1005.93 1005.58
1022.77 1022.82 1023.34 1022.78 1020.80 1016.36 1011.34 1010.39 1010.32 1010.40 1009.34 1007.97 1008.35 1008.33 1008.71 1008.81 1008.76 1007.19 1006.30 1005.93 1005.83 1005.67 1005.46 1005.61 1005.60 1005.79 1005.98 1006.26 1006.87 1007.40 1007.58 1007.86 1007.89 1007.71 1007.52 1007.48 1007.43 1007.27 1007.04 1007.04 1007.01 1007.02 1006.86 1006.70
1022.47 1022.67 1021.74 1021.14 1019.33 1015.19 1010.91 1010.22 1010.06 1009.87 1008.08 1007.00 1007.66 1007.81 1008.14 1008.22 1007.46 1006.21 1005.96 1005.70 1005.45 1005.46 1005.26 1005.04 1005.39 1005.44 1005.26 1005.63 1006.22 1006.87 1007.13 1007.14 1007.12 1007.38 1007.53 1007.47 1007.42 1007.43 1007.51 1007.50 1007.47 1007.47 1007.54 1007.54
1019.36 1020.17 1020.02 1019.47 1017.97 1013.71 1009.84 1010.17 1009.32 1007.33 1006.57 1006.30 1006.66 1006.64 1006.64 1006.48 1006.06 1006.01 1005.50 1005.41 1005.18 1005.13 1004.91 1004.79 1005.04 1005.06 1005.03 1005.15 1005.73 1006.06 1006.33 1006.30 1006.71 1006.90 1007.20 1007.42 1007.47 1007.46 1007.54 1007.69 1007.91 1008.10 1008.14 1008.10
1017.49 1015.92 1015.62 1015.17 1012.47 1009.79 1009.39 1008.49 1007.53 1006.88 1006.51 1006.08 1006.02 1005.66 1005.64 1005.59 1005.20 1005.09 1004.96 1004.68 1004.54 1004.52 1004.35 1004.16 1004.39 1004.39 1004.67 1004.93 1004.74 1005.03 1005.08 1005.78 1006.39 1006.75 1006.88 1007.13 1007.33 1007.45 1007.57 1007.74 1007.95 1008.23 1008.39 1008.60
1014.99 1013.95 1013.70 1012.43 1009.99 1008.55 1007.88 1007.41 1006.91 1006.35 1005.53 1005.10 1005.19 1004.96 1005.04 1004.93 1004.43 1004.16 1003.96 1003.56 1003.49 1003.25 1003.23 1003.15 1003.54 1003.85 1003.81 1003.97 1004.41 1004.03 1004.10 1004.86 1005.64 1006.26 1006.56 1006.81 1007.05 1007.40 1007.64 1007.78 1007.99 1008.18 1008.41 1008.70
1013.15 1012.80 1012.75 1008.96 1009.18 1007.38 1006.57 1006.23 1005.70 1004.98 1004.95 1004.74 1004.48 1004.43 1004.26 1004.14 1003.60 1003.33 1002.93 1002.66 1002.41 1002.26 1002.12 1002.22 1002.51 1002.51 1002.52 1002.71 1003.07 1003.43 1003.81 1003.95 1004.75 1005.45 1006.03 1006.53 1006.84 1007.00 1007.36 1007.72 1007.94 1008.20 1008.45 1008.59
1012.09 1011.07 1010.61 1007.17 1006.56 1006.54 1004.61 1005.50 1005.43 1005.09 1004.71 1004.29 1003.81 1003.50 1003.18 1002.95 1002.44 1002.13 1001.76 1001.55 1001.37 1001.22 1001.07 1001.37 1001.39 1001.53 1001.28 1001.64 1001.79 1002.23 1002.84 1003.46 1003.80 1004.49 1005.14 1005.68 1006.38 1006.84 1007.16 1007.54 1007.93 1007.94 1008.09 1008.13
Wind_Speed
4 3 2 5 5 6 5 6 9 7 12 5 12 13 19 10 8 9 10 8 8 8 7 6 7 7 7 7 6 7 7 10 7 5 6 6 7 7 8 8 11 12 11 13
5 3 5 5 6 5 5 6 9 10 5 5 11 19 18 12 13 14 13 8 9 5 6 7 8 5 6 6 7 8 9 9 7 5 6 6 7 7 8 8 10 13 13 14
3 6 5 2 4 5 4 6 5 7 6 6 7 10 7 6 8 6 7 7 7 9 9 7 7 6 7 7 8 8 9 9 8 9 7 8 9 10 9 7 6 9 13 13
5 4 2 3 6 4 5 4 5 6 8 4 5 9 7 6 7 3 4 6 7 8 7 5 6 7 6 8 7 8 9 10 10 10 9 12 11 11 9 10 7 8 12 14
7 2 3 4 5 5 9 3 6 4 6 4 2 2 10 4 4 4 7 8 8 8 6 6 7 7 7 7 7 8 10 11 11 10 10 9 11 11 9 8 9 10 10 13
7 4 4 5 3 4 8 5 3 2 1 3 3 4 8 3 4 3 5 8 8 7 6 6 6 6 7 7 7 8 8 10 11 10 10 11 13 12 9 8 8 7 7 8
7 3 4 2 5 4 6 5 5 6 5 7 2 1 11 6 7 7 10 9 8 6 5 6 7 6 7 8 8 7 7 11 10 11 11 10 12 11 13 11 9 9 7 6
4 10 3 2 4 2 3 1 4 4 4 7 3 6 8 4 7 6 7 6 6 6 5 6 7 7 7 7 9 9 9 11 10 11 12 11 11 8 9 12 9 8 9 8
2 7 4 4 3 6 3 2 2 2 1 5 5 8 10 4 2 3 6 5 7 7 7 6 6 6 7 6 7 8 9 10 10 11 10 11 11 11 10 11 9 9 8 7
1 8 3 4 1 1 4 1 4 3 5 7 6 7 7 5 7 6 7 9 8 8 7 5 5 7 5 5 5 7 7 9 11 11 10 9 10 11 9 10 11 10 9 9
4 4 6 2 5 7 3 2 3 4 3 3 6 10 8 7 7 10 11 9 9 8 7 7 7 6 6 5 5 6 7 10 12 12 11 10 9 10 10 8 10 10 9 9
4 3 6 10 1 2 2 5 5 5 5 3 3 13 5 7 8 8 10 9 8 8 8 8 7 5 6 5 4 6 6 7 8 10 12 13 11 11 11 9 7 6 7 6
5 1 6 9 4 3 4 4 3 5 3 7 5 11 3 7 7 7 9 9 9 7 8 8 7 7 6 5 4 5 6 7 8 8 9 11 12 10 11 11 9 4 4 7
2 3 8 8 8 2 4 5 6 5 4 5 12 14 17 10 10 9 9 9 9 9 8 7 7 8 7 6 4 4 5 5 6 6 7 9 10 10 8 9 10 9 6 4
3 5 4 11 19 20 21 19 11 13 11 9 2 10 19 12 12 14 11 10 9 12 11 10 9 8 7 7 5 4 4 4 4 5 5 6 8 8 9 8 9 10 10 8
2 5 3 11 7 7 13 17 18 20 20 18 23 30 27 25 13 12 13 11 11 10 10 9 8 8 8 8 7 5 5 4 2 4 5 5 5 6 7 7 9 10 10 10
6 2 4 9 7 12 9 8 16 7 6 14 13 17 5 9 8 8 10 9 12 11 10 9 9 9 8 8 7 7 5 2 3 3 4 5 5 5 5 5 6 8 8 8
7 5 3 7 8 3 5 6 11 12 8 19 11 15 11 10 7 12 13 12 12 11 11 9 8 7 8 6 6 4 3 3 3 3 2 3 3 4 4 5 5 6 6 7
4 5 3 3 3 11 11 4 8 8 10 13 20 19 15 5 6 11 9 11 16 11 10 9 8 7 6 7 7 6 5 4 4 4 3 3 1 2 3 4 5 4 5 6
4 1 5 1 4 7 5 3 3 4 7 4 10 11 5 3 4 7 7 4 9 9 7 8 7 5 7 8 7 6 6 6 6 5 5 3 3 1 2 2 4 3 4 5
3 2 13 10 7 12 13 4 5 1 7 5 6 7 5 6 8 6 6 7 4 6 8 5 6 8 10 7 8 7 6 8 7 5 4 3 2 1 1 1 2 3 5 5
11 10 8 6 7 12 8 5 8 7 2 1 5 7 8 10 10 10 12 9 9 10 8 7 7 8 7 8 8 8 9 7 6 6 5 5 3 2 2 4 3 3 4 5
5 10 8 15 13 4 5 4 8 6 6 7 5 9 8 8 8 12 13 12 12 10 9 6 8 8 7 8 10 10 10 7 7 6 6 6 4 3 3 4 5 3 4 3
6 6 5 6 8 21 13 10 14 17 20 19 13 12 10 14 11 11 10 10 10 11 11 8 8 9 11 9 10 13 8 8 8 7 7 6 6 5 3 2 3 3 3 3
3 7 7 25 18 26 21 20 20 19 15 12 10 12 15 12 12 12 13 12 11 12 11 6 10 11 14 9 12 11 8 9 8 7 6 6 5 6 5 3 2 2 0 2
6 15 13 25 21 18 23 15 14 22 24 23 21 16 10 11 15 14 13 12 11 13 11 7 10 10 12 9 12 11 11 11 11 10 7 7 6 5 4 4 3 3 5 5
Wind_Direction
342 28 262 258 216 223 255 257 263 264 280 272 267 273 272 263 267 259 251 235 235 240 255 258 265 261 271 268 265 264 272 273 267 274 274 268 258 250 247 235 229 220 224 225
11 243 244 249 251 246 267 272 277 285 277 281 279 273 274 251 249 238 237 218 222 236 262 268 269 258 263 273 273 273 267 264 257 254 260 262 272 261 247 240 233 228 224 221
181 254 321 261 291 283 261 229 257 262 302 261 289 281 270 280 259 253 208 191 192 219 245 270 289 306 305 294 280 278 278 279 273 264 265 266 260 257 251 246 230 231 230 225
238 269 259 272 275 210 280 211 247 283 320 297 60 291 288 285 294 270 190 177 210 230 240 262 292 293 294 290 290 286 291 292 288 279 267 256 259 259 244 241 226 218 221 222
262 257 269 277 232 181 246 238 257 264 276 324 298 89 269 326 297 232 206 213 228 231 236 268 278 285 291 293 289 289 288 293 289 281 269 265 265 260 254 243 228 222 225 225
246 305 261 230 283 222 289 297 334 53 122 268 242 155 285 236 222 199 225 228 226 237 253 271 285 300 296 286 285 282 284 304 306 290 278 264 266 267 248 235 235 228 224 224
322 253 274 225 316 338 9 13 338 359 6 234 355 189 246 266 248 205 210 226 232 241 264 282 297 292 290 316 313 299 315 309 313 304 294 278 263 262 258 241 231 227 224 224
50 330 194 158 204 270 315 26 141 281 302 288 304 233 257 258 275 212 200 219 222 245 254 270 283 297 299 310 314 314 327 323 321 313 310 300 280 251 243 238 228 230 228 219
13 271 301 217 190 123 327 358 310 251 271 286 264 288 304 325 358 198 215 225 238 256 257 261 291 297 297 302 300 312 315 315 316 325 318 312 304 277 249 240 228 227 222 220
251 300 231 293 88 109 165 188 23 7 320 296 293 284 243 263 241 253 258 246 248 251 261 260 261 267 276 297 305 318 317 312 318 327 323 318 312 311 280 243 226 222 223 219
152 137 290 311 201 186 139 197 134 138 186 223 309 272 221 235 221 218 238 240 243 247 248 248 243 259 287 313 333 317 330 330 334 327 329 326 329 326 313 268 235 221 220 219
209 173 273 237 272 350 259 200 155 129 254 197 171 273 262 256 277 234 246 241 244 236 246 244 248 245 262 282 323 328 335 328 321 323 331 337 339 348 342 312 254 220 224 220
173 290 327 339 6 20 243 216 138 98 59 210 150 259 310 304 281 257 261 267 266 256 261 254 256 257 267 287 302 325 324 325 326 324 334 339 341 346 351 343 342 324 262 251
157 180 194 212 230 212 229 208 194 153 146 208 229 279 264 280 272 276 264 258 272 270 256 251 253 239 241 250 269 293 309 319 319 328 337 341 341 340 355 2 1 359 352 342
117 240 241 251 263 265 265 256 221 209 211 208 271 230 273 270 270 271 260 266 264 271 266 244 229 236 236 239 245 259 272 304 317 336 342 333 330 349 349 15 27 13 10 1
172 265 353 292 258 257 262 242 230 235 238 253 263 277 275 280 280 273 264 266 264 257 257 254 234 230 232 234 235 234 245 270 310 327 337 333 348 343 356 359 50 30 17 16
172 168 20 271 331 316 294 238 196 186 196 217 224 235 267 276 272 270 268 258 254 253 247 237 230 227 222 223 220 233 236 255 289 325 333 350 357 5 354 357 27 53 30 21
149 149 160 277 340 306 238 169 184 199 223 208 251 261 249 255 266 274 260 251 260 250 254 244 224 226 225 214 211 208 211 225 251 282 321 332 4 12 17 23 22 23 45 27
176 139 267 260 255 298 287 183 154 180 279 211 223 253 267 284 299 294 254 232 245 253 254 244 228 209 196 206 209 193 194 204 221 246 277 298 336 49 39 58 48 27 28 48
106 117 164 176 240 251 258 109 159 175 286 208 189 233 251 144 326 263 291 285 273 255 244 257 233 209 190 207 188 189 201 203 229 219 229 267 309 358 89 78 64 21 34 49
145 204 218 227 259 278 263 182 156 139 240 154 179 240 180 198 220 258 284 288 260 269 278 257 226 217 211 182 169 203 206 212 212 203 217 232 234 187 83 70 46 70 63 52
170 167 201 190 217 277 164 70 171 222 264 209 208 231 217 234 271 272 275 268 269 264 271 249 230 236 224 183 173 205 214 210 198 188 193 211 220 206 135 128 98 75 85 85
215 203 198 195 208 265 201 267 262 276 255 267 254 253 244 259 264 280 281 286 279 254 256 231 223 231 225 211 191 197 225 172 184 189 196 194 196 191 171 153 149 127 122 113
245 197 247 304 204 253 273 256 257 267 273 282 266 272 264 267 269 271 267 268 265 265 247 230 209 226 234 206 211 222 182 174 173 190 195 189 180 184 181 156 159 148 149 142
194 127 227 262 261 272 264 259 270 284 283 281 266 258 265 258 254 255 278 279 274 270 270 210 218 223 231 199 210 215 204 169 179 185 186 189 189 180 167 148 164 149 157 170
189 232 232 260 266 253 290 294 309 302 301 292 289 284 254 238 256 267 270 266 264 268 265 237 227 225 230 204 209 205 195 189 184 188 184 184 178 177 168 154 123 115 155 126